QPF
0.09 0.06 0.04 0.05 0.06 0.05 0.05 0.03 0.03 0.04 0.03 0.03 0.03 0.02 0.02 0.02 0.02 0.02 0.02 0.03 0.03 0.04 0.07 0.09 0.10 0.09 0.09 0.10 0.10 0.09 0.07 0.06 0.05 0.05 0.05 0.05 0.05 0.06 0.07 0.07 0.06 0.04 0.03
0.12 0.12 0.09 0.07 0.06 0.06 0.05 0.05 0.06 0.04 0.03 0.03 0.01 0.01 0.02 0.02 0.02 0.02 0.01 0.01 0.02 0.03 0.05 0.07 0.07 0.07 0.07 0.07 0.09 0.10 0.08 0.06 0.05 0.04 0.03 0.04 0.05 0.05 0.04 0.04 0.05 0.05 0.04
0.09 0.07 0.07 0.08 0.06 0.05 0.04 0.05 0.06 0.05 0.03 0.02 0.01 0.02 0.03 0.02 0.02 0.02 0.01 0.02 0.01 0.02 0.02 0.03 0.03 0.04 0.05 0.05 0.06 0.08 0.08 0.07 0.05 0.05 0.05 0.04 0.05 0.06 0.06 0.05 0.04 0.05 0.04
0.08 0.07 0.06 0.06 0.06 0.05 0.04 0.04 0.06 0.05 0.03 0.02 0.01 0.02 0.04 0.02 0.01 0.02 0.02 0.03 0.03 0.02 0.02 0.02 0.02 0.03 0.03 0.04 0.04 0.05 0.06 0.07 0.07 0.07 0.06 0.05 0.06 0.06 0.06 0.06 0.06 0.06 0.05
0.10 0.09 0.07 0.06 0.06 0.05 0.05 0.04 0.07 0.07 0.04 0.02 0.02 0.04 0.05 0.03 0.03 0.03 0.03 0.03 0.03 0.02 0.02 0.02 0.01 0.01 0.01 0.02 0.03 0.04 0.04 0.05 0.06 0.07 0.07 0.06 0.06 0.06 0.06 0.06 0.06 0.06 0.06
0.08 0.09 0.06 0.04 0.06 0.06 0.08 0.06 0.06 0.05 0.03 0.02 0.03 0.02 0.02 0.03 0.04 0.04 0.03 0.02 0.02 0.02 0.02 0.01 0.01 0.01 0.01 0.02 0.02 0.02 0.03 0.03 0.05 0.06 0.07 0.06 0.06 0.07 0.08 0.07 0.07 0.07 0.07
0.04 0.05 0.05 0.06 0.07 0.09 0.10 0.08 0.07 0.04 0.03 0.03 0.03 0.03 0.02 0.01 0.01 0.01 0.01 0.01 0.01 0.01 0.02 0.03 0.02 0.01 0.01 0.02 0.03 0.03 0.03 0.04 0.05 0.06 0.07 0.07 0.07 0.08 0.08 0.07 0.07 0.08 0.09
0.03 0.04 0.05 0.07 0.07 0.09 0.09 0.08 0.06 0.04 0.04 0.04 0.03 0.03 0.02 0.02 0.02 0.02 0.02 0.01 0.01 0.01 0.02 0.03 0.03 0.02 0.01 0.01 0.02 0.02 0.03 0.05 0.05 0.05 0.05 0.05 0.05 0.05 0.06 0.05 0.05 0.06 0.06
0.02 0.04 0.05 0.05 0.05 0.07 0.07 0.06 0.06 0.05 0.05 0.05 0.03 0.03 0.02 0.02 0.03 0.03 0.03 0.03 0.01 0.01 0.02 0.01 0.01 0.01 0.01 0.01 0.02 0.03 0.04 0.04 0.04 0.05 0.05 0.05 0.06 0.06 0.06 0.05 0.05 0.05 0.05
0.02 0.03 0.04 0.04 0.04 0.05 0.05 0.05 0.05 0.04 0.05 0.04 0.03 0.02 0.02 0.01 0.02 0.02 0.02 0.02 0.01 0.01 0.01 0.01 0.01 0.01 0.01 0.01 0.01 0.02 0.04 0.03 0.03 0.04 0.04 0.04 0.04 0.05 0.04 0.03 0.03 0.03 0.04
0.01 0.02 0.04 0.04 0.04 0.03 0.03 0.03 0.04 0.03 0.03 0.02 0.03 0.02 0.01 0.01 0.02 0.02 0.02 0.02 0.01 0.01 0.01 0.01 0.01 0.01 0.01 0.01 0.01 0.02 0.03 0.03 0.03 0.03 0.02 0.03 0.03 0.03 0.03 0.02 0.02 0.02 0.02
0.02 0.03 0.03 0.03 0.03 0.03 0.04 0.04 0.04 0.03 0.02 0.02 0.03 0.02 0.02 0.02 0.02 0.02 0.02 0.02 0.02 0.02 0.01 0.01 0.01 0.01 0.01 0.02 0.02 0.02 0.03 0.03 0.03 0.03 0.03 0.02 0.02 0.02 0.03 0.02 0.01 0.02 0.02
0.02 0.02 0.02 0.02 0.02 0.03 0.03 0.03 0.03 0.02 0.02 0.02 0.02 0.02 0.01 0.02 0.02 0.02 0.02 0.02 0.01 0.01 0.01 0.01 0.01 0.02 0.01 0.01 0.02 0.03 0.03 0.03 0.03 0.05 0.05 0.03 0.02 0.02 0.02 0.03 0.02 0.02 0.02
0.02 0.02 0.01 0.01 0.02 0.03 0.03 0.03 0.02 0.01 0.01 0.02 0.02 0.02 0.01 0.01 0.01 0.01 0.01 0.01 0.02 0.01 0.01 0.01 0.02 0.02 0.01 0.01 0.02 0.03 0.03 0.02 0.04 0.05 0.05 0.04 0.02 0.01 0.02 0.03 0.03 0.02 0.02
0.02 0.01 0.01 0.02 0.03 0.03 0.03 0.03 0.02 0.02 0.02 0.02 0.02 0.02 0.01 0.01 0.01 0.01 0.02 0.02 0.02 0.01 0.02 0.03 0.03 0.03 0.02 0.01 0.01 0.02 0.03 0.02 0.03 0.04 0.04 0.04 0.03 0.02 0.02 0.02 0.03 0.02 0.02
0.02 0.02 0.02 0.04 0.05 0.04 0.03 0.02 0.02 0.02 0.03 0.02 0.02 0.02 0.01 0.02 0.02 0.03 0.05 0.04 0.02 0.02 0.02 0.03 0.04 0.03 0.02 0.01 0.01 0.01 0.02 0.02 0.02 0.03 0.03 0.04 0.04 0.03 0.02 0.02 0.02 0.03 0.02
0.02 0.03 0.04 0.06 0.04 0.03 0.02 0.02 0.02 0.03 0.03 0.03 0.03 0.03 0.02 0.02 0.03 0.06 0.05 0.03 0.03 0.02 0.02 0.02 0.02 0.01 0.01 0.01 0.00 0.01 0.01 0.02 0.02 0.03 0.03 0.04 0.05 0.04 0.03 0.02 0.01 0.02 0.02
0.04 0.04 0.05 0.04 0.02 0.02 0.02 0.03 0.04 0.04 0.04 0.04 0.04 0.03 0.03 0.03 0.06 0.05 0.03 0.02 0.02 0.02 0.01 0.01 0.01 0.00 0.00 0.00 0.00 0.01 0.02 0.03 0.03 0.03 0.02 0.03 0.04 0.04 0.02 0.01 0.01 0.01 0.01
0.02 0.03 0.03 0.02 0.02 0.02 0.02 0.03 0.04 0.05 0.04 0.04 0.04 0.04 0.05 0.06 0.05 0.03 0.02 0.01 0.02 0.02 0.01 0.01 0.01 0.01 0.00 0.00 0.01 0.01 0.02 0.02 0.02 0.01 0.01 0.01 0.02 0.02 0.02 0.01 0.00 0.00 0.01
0.01 0.01 0.01 0.01 0.01 0.01 0.01 0.01 0.02 0.03 0.04 0.04 0.04 0.04 0.04 0.03 0.02 0.02 0.02 0.01 0.01 0.02 0.01 0.01 0.01 0.01 0.00 0.00 0.00 0.01 0.01 0.01 0.01 0.01 0.01 0.01 0.02 0.02 0.01 0.00 0.00 0.00 0.00
0.01 0.01 0.01 0.01 0.01 0.01 0.00 0.01 0.01 0.02 0.02 0.03 0.03 0.02 0.01 0.01 0.01 0.02 0.02 0.01 0.01 0.01 0.01 0.01 0.01 0.00 0.00 0.00 0.00 0.00 0.01 0.01 0.01 0.01 0.01 0.01 0.01 0.01 0.01 0.01 0.01 0.01 0.01
0.01 0.01 0.01 0.01 0.01 0.01 0.01 0.00 0.00 0.01 0.01 0.01 0.01 0.01 0.01 0.01 0.01 0.02 0.01 0.01 0.01 0.02 0.02 0.01 0.01 0.01 0.01 0.01 0.01 0.01 0.01 0.01 0.02 0.02 0.01 0.01 0.01 0.02 0.02 0.02 0.02 0.01 0.01
0.01 0.01 0.01 0.01 0.01 0.01 0.01 0.01 0.01 0.01 0.01 0.01 0.01 0.01 0.01 0.01 0.01 0.01 0.01 0.01 0.02 0.01 0.01 0.01 0.01 0.01 0.01 0.01 0.02 0.02 0.02 0.02 0.02 0.02 0.02 0.02 0.01 0.01 0.01 0.01 0.02 0.02 0.02
0.02 0.02 0.02 0.01 0.01 0.01 0.01 0.00 0.00 0.01 0.01 0.01 0.00 0.01 0.01 0.01 0.01 0.01 0.01 0.01 0.01 0.01 0.01 0.01 0.01 0.01 0.01 0.01 0.01 0.01 0.01 0.01 0.01 0.01 0.01 0.00 0.00 0.01 0.01 0.01 0.01 0.01 0.01
0.03 0.02 0.02 0.01 0.01 0.01 0.01 0.00 0.00 0.00 0.00 0.00 0.00 0.00 0.00 0.00 0.00 0.00 0.01 0.01 0.01 0.00 0.01 0.01 0.01 0.01 0.00 0.00 0.00 0.00 0.00 0.00 0.01 0.01 0.01 0.00 0.01 0.01 0.01 0.01 0.01 0.00 0.00
0.03 0.02 0.02 0.01 0.01 0.00 0.00 0.00 0.00 0.00 0.00 0.00 0.00 0.00 0.00 0.00 0.00 0.00 0.01 0.00 0.00 0.00 0.00 0.01 0.00 0.00 0.00 0.00 0.00 0.00 0.00 0.00 0.01 0.01 0.01 0.01 0.01 0.01 0.01 0.01 0.01 0.00 0.00
MSLP
1001.36 1000.56 999.81 999.11 998.47 997.92 997.50 997.24 997.16 997.31 997.67 998.24 999.00 999.88 1000.83 1001.80 1002.74 1003.59 1004.33 1004.95 1005.45 1005.83 1006.14 1006.39 1006.62 1006.85 1007.12 1007.44 1007.82 1008.27 1008.77 1009.30 1009.83 1010.33 1010.76 1011.10 1011.33 1011.45 1011.45 1011.35 1011.18 1010.96 1010.71
1000.67 999.73 998.85 998.04 997.32 996.75 996.34 996.15 996.18 996.46 996.97 997.69 998.59 999.61 1000.68 1001.74 1002.75 1003.67 1004.46 1005.12 1005.64 1006.05 1006.36 1006.60 1006.81 1007.02 1007.25 1007.54 1007.89 1008.30 1008.78 1009.30 1009.82 1010.32 1010.76 1011.10 1011.32 1011.42 1011.39 1011.26 1011.05 1010.79 1010.51
1000.15 999.07 998.05 997.11 996.32 995.70 995.30 995.17 995.30 995.71 996.38 997.26 998.31 999.46 1000.65 1001.81 1002.90 1003.88 1004.73 1005.43 1005.99 1006.42 1006.75 1007.00 1007.22 1007.41 1007.62 1007.88 1008.19 1008.56 1008.99 1009.46 1009.95 1010.41 1010.82 1011.14 1011.34 1011.42 1011.38 1011.23 1011.01 1010.73 1010.44
999.76 998.55 997.40 996.35 995.46 994.81 994.42 994.34 994.57 995.12 995.93 996.98 998.18 999.46 1000.77 1002.02 1003.18 1004.22 1005.10 1005.84 1006.44 1006.90 1007.26 1007.54 1007.77 1007.97 1008.17 1008.39 1008.66 1008.98 1009.35 1009.75 1010.17 1010.57 1010.93 1011.21 1011.39 1011.45 1011.40 1011.26 1011.04 1010.77 1010.48
999.50 998.17 996.90 995.75 994.79 994.11 993.74 993.72 994.06 994.74 995.71 996.90 998.24 999.65 1001.04 1002.37 1003.58 1004.65 1005.57 1006.33 1006.95 1007.44 1007.83 1008.14 1008.39 1008.60 1008.80 1009.00 1009.23 1009.49 1009.78 1010.10 1010.44 1010.77 1011.06 1011.29 1011.44 1011.49 1011.44 1011.31 1011.11 1010.87 1010.60
999.36 997.94 996.58 995.36 994.36 993.67 993.34 993.40 993.85 994.65 995.76 997.08 998.54 1000.04 1001.51 1002.88 1004.11 1005.18 1006.10 1006.86 1007.48 1007.98 1008.39 1008.72 1008.99 1009.22 1009.41 1009.60 1009.79 1009.99 1010.21 1010.45 1010.71 1010.95 1011.17 1011.35 1011.46 1011.50 1011.47 1011.36 1011.19 1010.98 1010.74
999.39 997.92 996.51 995.25 994.24 993.58 993.31 993.46 994.01 994.94 996.16 997.59 999.13 1000.69 1002.18 1003.55 1004.76 1005.80 1006.68 1007.40 1008.00 1008.49 1008.90 1009.24 1009.52 1009.75 1009.95 1010.13 1010.28 1010.44 1010.60 1010.76 1010.93 1011.10 1011.26 1011.38 1011.47 1011.50 1011.47 1011.39 1011.25 1011.07 1010.87
999.67 998.19 996.77 995.53 994.57 993.96 993.77 994.01 994.66 995.68 996.99 998.47 1000.05 1001.60 1003.06 1004.38 1005.53 1006.50 1007.30 1007.96 1008.50 1008.95 1009.34 1009.67 1009.96 1010.20 1010.39 1010.56 1010.69 1010.80 1010.91 1011.01 1011.11 1011.22 1011.32 1011.40 1011.46 1011.48 1011.46 1011.40 1011.29 1011.13 1010.95
1000.27 998.82 997.47 996.29 995.41 994.89 994.79 995.12 995.84 996.91 998.24 999.73 1001.27 1002.77 1004.15 1005.37 1006.40 1007.26 1007.96 1008.53 1008.99 1009.39 1009.74 1010.05 1010.32 1010.56 1010.75 1010.91 1011.02 1011.11 1011.17 1011.23 1011.28 1011.33 1011.39 1011.44 1011.47 1011.48 1011.46 1011.40 1011.30 1011.16 1010.99
1001.22 999.87 998.63 997.57 996.80 996.39 996.38 996.77 997.53 998.60 999.90 1001.32 1002.76 1004.14 1005.38 1006.45 1007.35 1008.07 1008.64 1009.11 1009.49 1009.83 1010.13 1010.41 1010.67 1010.89 1011.08 1011.23 1011.33 1011.40 1011.44 1011.46 1011.48 1011.49 1011.51 1011.53 1011.54 1011.53 1011.50 1011.43 1011.33 1011.18 1011.00
1002.50 1001.32 1000.24 999.33 998.70 998.40 998.47 998.89 999.64 1000.65 1001.85 1003.13 1004.41 1005.62 1006.68 1007.58 1008.31 1008.89 1009.34 1009.70 1010.01 1010.28 1010.55 1010.80 1011.04 1011.25 1011.43 1011.57 1011.67 1011.72 1011.75 1011.75 1011.74 1011.73 1011.72 1011.70 1011.69 1011.65 1011.59 1011.50 1011.37 1011.20 1011.00
1004.06 1003.07 1002.18 1001.46 1000.98 1000.78 1000.90 1001.32 1002.00 1002.90 1003.94 1005.04 1006.11 1007.10 1007.96 1008.67 1009.24 1009.68 1010.02 1010.30 1010.55 1010.78 1011.01 1011.24 1011.47 1011.67 1011.85 1011.98 1012.07 1012.11 1012.12 1012.11 1012.08 1012.05 1012.01 1011.97 1011.92 1011.85 1011.76 1011.63 1011.46 1011.25 1011.01
1005.74 1004.98 1004.30 1003.76 1003.43 1003.32 1003.46 1003.84 1004.42 1005.17 1006.00 1006.87 1007.71 1008.47 1009.12 1009.66 1010.08 1010.40 1010.67 1010.89 1011.10 1011.31 1011.53 1011.75 1011.96 1012.16 1012.33 1012.45 1012.53 1012.56 1012.56 1012.54 1012.50 1012.45 1012.39 1012.32 1012.23 1012.12 1011.98 1011.81 1011.59 1011.34 1011.06
1007.42 1006.87 1006.40 1006.04 1005.83 1005.79 1005.93 1006.24 1006.70 1007.26 1007.88 1008.51 1009.11 1009.65 1010.11 1010.49 1010.79 1011.04 1011.26 1011.45 1011.65 1011.87 1012.09 1012.31 1012.52 1012.71 1012.86 1012.97 1013.04 1013.06 1013.05 1013.01 1012.96 1012.89 1012.81 1012.71 1012.59 1012.45 1012.26 1012.04 1011.78 1011.48 1011.16
1008.94 1008.59 1008.30 1008.09 1007.99 1007.99 1008.12 1008.35 1008.66 1009.04 1009.45 1009.86 1010.25 1010.60 1010.91 1011.16 1011.39 1011.59 1011.79 1012.00 1012.21 1012.44 1012.67 1012.89 1013.10 1013.28 1013.41 1013.51 1013.55 1013.57 1013.54 1013.50 1013.43 1013.35 1013.25 1013.13 1012.98 1012.80 1012.58 1012.32 1012.01 1011.68 1011.32
1010.22 1010.03 1009.89 1009.79 1009.76 1009.80 1009.89 1010.04 1010.23 1010.45 1010.68 1010.92 1011.14 1011.34 1011.53 1011.72 1011.90 1012.10 1012.30 1012.53 1012.76 1013.01 1013.25 1013.48 1013.67 1013.83 1013.95 1014.02 1014.04 1014.04 1014.00 1013.95 1013.87 1013.79 1013.68 1013.54 1013.38 1013.17 1012.92 1012.64 1012.31 1011.95 1011.58
1011.26 1011.17 1011.13 1011.11 1011.13 1011.18 1011.25 1011.33 1011.43 1011.52 1011.63 1011.73 1011.84 1011.95 1012.08 1012.22 1012.40 1012.60 1012.82 1013.07 1013.32 1013.58 1013.82 1014.04 1014.21 1014.35 1014.43 1014.48 1014.48 1014.46 1014.42 1014.35 1014.28 1014.19 1014.08 1013.94 1013.77 1013.55 1013.30 1013.00 1012.67 1012.31 1011.94
1012.08 1012.06 1012.07 1012.10 1012.15 1012.20 1012.25 1012.29 1012.32 1012.35 1012.37 1012.40 1012.44 1012.51 1012.61 1012.75 1012.93 1013.14 1013.38 1013.64 1013.90 1014.15 1014.38 1014.57 1014.71 1014.81 1014.86 1014.88 1014.86 1014.83 1014.78 1014.72 1014.65 1014.57 1014.46 1014.33 1014.16 1013.96 1013.70 1013.41 1013.09 1012.75 1012.39
1012.76 1012.76 1012.79 1012.85 1012.90 1012.96 1013.00 1013.02 1013.03 1013.02 1013.02 1013.02 1013.05 1013.11 1013.21 1013.35 1013.54 1013.76 1014.00 1014.25 1014.50 1014.72 1014.91 1015.05 1015.16 1015.21 1015.23 1015.23 1015.20 1015.16 1015.11 1015.06 1015.00 1014.93 1014.84 1014.72 1014.57 1014.37 1014.14 1013.87 1013.57 1013.25 1012.93
1013.39 1013.38 1013.41 1013.46 1013.52 1013.58 1013.62 1013.64 1013.65 1013.65 1013.65 1013.66 1013.70 1013.78 1013.89 1014.04 1014.22 1014.44 1014.66 1014.88 1015.09 1015.26 1015.40 1015.49 1015.55 1015.57 1015.56 1015.53 1015.50 1015.46 1015.42 1015.39 1015.35 1015.29 1015.22 1015.12 1014.98 1014.80 1014.59 1014.35 1014.08 1013.80 1013.51
1014.00 1013.98 1013.99 1014.03 1014.08 1014.13 1014.18 1014.22 1014.25 1014.27 1014.30 1014.34 1014.40 1014.49 1014.61 1014.76 1014.93 1015.12 1015.31 1015.48 1015.63 1015.74 1015.82 1015.87 1015.88 1015.87 1015.84 1015.81 1015.78 1015.75 1015.73 1015.72 1015.69 1015.66 1015.60 1015.51 1015.38 1015.22 1015.03 1014.81 1014.58 1014.34 1014.09
1014.62 1014.57 1014.56 1014.57 1014.62 1014.67 1014.72 1014.77 1014.82 1014.87 1014.92 1014.99 1015.07 1015.18 1015.30 1015.44 1015.59 1015.73 1015.87 1015.98 1016.07 1016.12 1016.15 1016.15 1016.13 1016.10 1016.07 1016.05 1016.03 1016.03 1016.03 1016.04 1016.03 1016.01 1015.95 1015.87 1015.75 1015.60 1015.42 1015.23 1015.02 1014.82 1014.61
1015.20 1015.12 1015.09 1015.09 1015.11 1015.15 1015.20 1015.26 1015.32 1015.39 1015.46 1015.54 1015.64 1015.74 1015.85 1015.96 1016.07 1016.17 1016.25 1016.31 1016.34 1016.35 1016.33 1016.31 1016.28 1016.25 1016.24 1016.24 1016.25 1016.28 1016.31 1016.33 1016.33 1016.31 1016.26 1016.17 1016.05 1015.90 1015.73 1015.55 1015.36 1015.19 1015.02
1015.69 1015.60 1015.55 1015.52 1015.53 1015.55 1015.59 1015.64 1015.70 1015.76 1015.84 1015.92 1016.00 1016.09 1016.18 1016.26 1016.32 1016.38 1016.41 1016.42 1016.41 1016.39 1016.36 1016.33 1016.31 1016.30 1016.32 1016.36 1016.41 1016.47 1016.52 1016.56 1016.58 1016.56 1016.50 1016.40 1016.26 1016.10 1015.93 1015.75 1015.59 1015.44 1015.30
1016.03 1015.94 1015.87 1015.83 1015.81 1015.81 1015.82 1015.85 1015.89 1015.94 1015.99 1016.05 1016.12 1016.18 1016.23 1016.28 1016.31 1016.32 1016.32 1016.30 1016.27 1016.24 1016.21 1016.20 1016.21 1016.24 1016.31 1016.39 1016.48 1016.58 1016.66 1016.72 1016.74 1016.71 1016.64 1016.53 1016.38 1016.21 1016.03 1015.86 1015.70 1015.57 1015.46
1016.19 1016.11 1016.03 1015.97 1015.93 1015.90 1015.88 1015.88 1015.89 1015.90 1015.93 1015.96 1015.99 1016.02 1016.04 1016.05 1016.05 1016.04 1016.01 1015.98 1015.95 1015.93 1015.92 1015.94 1015.99 1016.08 1016.19 1016.32 1016.46 1016.59 1016.70 1016.77 1016.80 1016.78 1016.70 1016.58 1016.42 1016.24 1016.06 1015.89 1015.74 1015.63 1015.54
Thickness
5640 5639 5638 5637 5635 5634 5633 5633 5632 5632 5632 5631 5630 5628 5626 5624 5623 5621 5620 5619 5618 5616 5616 5616 5615 5614 5614 5613 5613 5613 5612 5612 5612 5615 5616 5617 5618 5619 5620 5622 5624 5626 5627
5636 5635 5634 5633 5631 5629 5629 5629 5629 5628 5628 5627 5626 5624 5622 5621 5619 5617 5616 5615 5613 5612 5611 5611 5610 5610 5608 5608 5608 5608 5607 5607 5607 5608 5609 5610 5610 5612 5613 5614 5616 5618 5619
5631 5630 5629 5628 5627 5626 5625 5625 5625 5625 5625 5624 5622 5620 5619 5617 5615 5613 5611 5610 5608 5607 5606 5605 5605 5604 5603 5603 5604 5603 5602 5602 5601 5600 5601 5601 5602 5603 5604 5606 5608 5609 5611
5626 5625 5624 5623 5623 5623 5623 5622 5622 5622 5621 5620 5618 5616 5615 5613 5611 5609 5607 5605 5603 5602 5601 5601 5600 5599 5599 5599 5599 5598 5597 5595 5594 5593 5593 5593 5594 5595 5596 5597 5599 5600 5602
5621 5621 5620 5620 5620 5620 5620 5620 5619 5619 5618 5616 5614 5612 5610 5609 5607 5605 5603 5601 5599 5598 5597 5596 5596 5596 5596 5594 5593 5592 5590 5589 5588 5587 5586 5586 5587 5588 5589 5590 5591 5592 5594
5617 5617 5617 5617 5616 5617 5617 5616 5615 5614 5613 5611 5609 5608 5606 5605 5603 5601 5599 5596 5594 5593 5592 5592 5592 5591 5591 5589 5588 5587 5585 5584 5583 5582 5582 5580 5582 5582 5582 5583 5583 5584 5586
5614 5614 5614 5614 5613 5614 5614 5613 5611 5610 5609 5608 5606 5604 5603 5601 5600 5598 5596 5594 5592 5589 5588 5587 5587 5586 5585 5584 5583 5582 5580 5579 5578 5578 5577 5577 5577 5578 5577 5577 5576 5577 5578
5611 5611 5611 5610 5610 5610 5610 5609 5608 5607 5605 5604 5602 5601 5600 5599 5597 5595 5593 5591 5589 5587 5585 5583 5582 5580 5579 5578 5577 5576 5575 5575 5574 5574 5573 5574 5573 5572 5572 5571 5571 5570 5571
5608 5608 5608 5607 5606 5606 5606 5605 5605 5604 5602 5601 5599 5598 5597 5596 5594 5592 5590 5588 5586 5584 5582 5580 5578 5576 5574 5572 5571 5571 5571 5571 5571 5570 5569 5568 5568 5567 5565 5565 5565 5565 5566
5606 5605 5605 5604 5603 5603 5603 5602 5601 5601 5600 5598 5597 5596 5594 5593 5591 5589 5587 5585 5583 5581 5579 5576 5574 5572 5570 5568 5566 5565 5565 5566 5566 5566 5564 5564 5563 5562 5561 5560 5560 5560 5560
5604 5603 5602 5602 5601 5601 5600 5600 5599 5598 5597 5595 5595 5594 5592 5590 5588 5587 5584 5582 5580 5578 5576 5574 5571 5569 5566 5564 5562 5561 5560 5559 5559 5559 5559 5559 5559 5557 5557 5556 5555 5555 5556
5602 5601 5600 5600 5599 5599 5598 5598 5597 5595 5594 5593 5592 5591 5589 5588 5586 5584 5582 5579 5576 5574 5572 5570 5568 5565 5563 5562 5560 5558 5556 5555 5555 5555 5555 5554 5554 5553 5553 5552 5552 5551 5551
5600 5599 5599 5598 5597 5597 5596 5596 5595 5593 5591 5590 5589 5588 5587 5586 5583 5581 5578 5576 5574 5571 5569 5567 5564 5563 5561 5560 5558 5556 5554 5553 5552 5550 5549 5549 5548 5547 5547 5547 5548 5547 5547
5598 5598 5597 5597 5597 5596 5596 5595 5593 5591 5590 5589 5588 5587 5585 5583 5581 5579 5576 5574 5572 5569 5567 5565 5562 5560 5558 5556 5555 5553 5551 5549 5547 5545 5544 5543 5542 5542 5541 5541 5542 5542 5542
5597 5597 5597 5597 5597 5596 5596 5594 5594 5592 5591 5589 5588 5585 5583 5581 5580 5577 5574 5572 5570 5567 5564 5562 5560 5558 5556 5554 5552 5550 5547 5544 5542 5540 5539 5538 5537 5536 5536 5535 5534 5534 5534
5597 5597 5597 5597 5598 5597 5596 5596 5595 5593 5591 5589 5586 5584 5582 5580 5578 5576 5573 5570 5567 5564 5561 5560 5558 5555 5553 5550 5548 5546 5543 5540 5538 5536 5534 5533 5532 5530 5529 5529 5528 5528 5528
5598 5598 5598 5598 5598 5598 5597 5596 5594 5593 5591 5589 5586 5584 5582 5579 5577 5575 5572 5570 5567 5563 5560 5558 5555 5552 5550 5547 5544 5542 5539 5536 5533 5531 5529 5528 5526 5524 5523 5523 5522 5521 5521
5600 5600 5599 5599 5599 5598 5597 5596 5594 5592 5590 5588 5586 5583 5581 5579 5577 5575 5573 5570 5567 5562 5559 5556 5553 5550 5546 5543 5540 5537 5534 5531 5529 5526 5524 5522 5520 5518 5517 5516 5515 5514 5514
5600 5600 5600 5600 5599 5598 5597 5596 5594 5592 5590 5587 5585 5583 5581 5578 5576 5574 5572 5569 5565 5561 5557 5554 5550 5547 5544 5540 5537 5533 5530 5527 5523 5520 5518 5515 5513 5512 5511 5510 5509 5506 5506
5601 5601 5601 5600 5599 5598 5597 5596 5594 5592 5589 5587 5584 5582 5580 5578 5576 5573 5569 5566 5563 5559 5555 5552 5548 5545 5541 5537 5533 5530 5526 5522 5519 5516 5513 5510 5508 5506 5505 5504 5503 5502 5501
5601 5602 5601 5600 5599 5598 5597 5595 5593 5591 5588 5586 5583 5581 5578 5576 5574 5570 5567 5564 5560 5556 5553 5549 5545 5541 5538 5534 5530 5526 5522 5519 5515 5511 5508 5505 5503 5502 5500 5499 5498 5497 5496
5601 5601 5601 5600 5599 5598 5596 5594 5591 5589 5587 5585 5582 5580 5576 5574 5571 5568 5565 5561 5558 5554 5550 5546 5542 5538 5534 5530 5526 5522 5518 5514 5511 5507 5504 5501 5498 5496 5495 5494 5493 5492 5492
5600 5601 5600 5599 5598 5597 5595 5592 5590 5588 5586 5584 5581 5578 5575 5572 5569 5566 5563 5559 5555 5551 5547 5543 5539 5535 5530 5526 5522 5518 5514 5510 5506 5502 5499 5497 5494 5492 5490 5489 5488 5488 5487
5600 5600 5599 5599 5597 5596 5593 5591 5589 5587 5585 5582 5580 5576 5573 5570 5567 5564 5560 5557 5553 5549 5545 5541 5536 5532 5527 5522 5518 5513 5509 5505 5501 5498 5495 5493 5491 5489 5487 5486 5485 5483 5482
5599 5598 5598 5597 5596 5594 5592 5590 5588 5585 5583 5581 5578 5574 5571 5568 5564 5561 5557 5554 5550 5547 5542 5538 5533 5528 5523 5519 5514 5510 5506 5502 5498 5495 5493 5491 5488 5486 5484 5482 5481 5479 5477
5597 5597 5596 5595 5594 5593 5591 5589 5586 5584 5582 5579 5576 5573 5569 5566 5563 5559 5556 5552 5548 5544 5540 5535 5530 5525 5520 5516 5511 5507 5503 5500 5496 5493 5490 5488 5486 5483 5481 5479 5476 5474 5472